Change the Weather History Date:

Wednesday, May 22, 2013

  Actual Average (K3TH) Record (K3TH)
Temperature  
Mean Temperature 30 °F -  
Max Temperature 33 °F 66 °F 86 °F (2001)
Min Temperature 26 °F 46 °F 43 °F (1997)
Degree Days  
Heating Degree Days 36    
Moisture  
Dew Point 29 °F    
Average Humidity 99    
Maximum Humidity 100    
Minimum Humidity 93    
Precipitation  
Precipitation 0.00 in - - ()
Sea Level Pressure  
Sea Level Pressure 29.80 in    
Wind  
Wind Speed 6 mph (NW)    
Max Wind Speed 10 mph    
Max Gust Speed 28 mph    
Visibility 1 miles    
Events Fog , Rain , Snow    
Averages and records for this station are not official NWS values.
T = Trace of Precipitation, MM = Missing Value Source: NWS Daily Summary

Daily Weather History Graph

Daily Weather History Graph

Search for Another Location

Airport or City:

Trip Planner

Search our weather history database for the weather conditions in past years. The results will help you decide how hot, cold, wet, or windy it might be!

Date:

Astronomy

May. 22, 2013 Rise Set
Actual Time 4:57 AM PDT 8:21 PM PDT
Civil Twilight 4:19 AM PDT 8:59 PM PDT
Nautical Twilight 3:30 AM PDT 9:49 PM PDT
Astronomical Twilight 2:25 AM PDT 10:55 PM PDT
Moon 5:40 PM PDT (5/22) 3:16 AM PDT (5/22)
Length of Visible Light 16h 39m
Length of Day
15h 24m
Waxing Gibbous, 92% of the Moon is Illuminated
May 22
Waxing Gibbous
May 24
Full
May 31
Last Quarter
Jun 8
New
Jun 16
First Quarter

Hourly Weather History & Observations

Time (PDT) Temp. Windchill Dew Point Humidity Pressure Visibility Wind Dir Wind Speed Gust Speed Precip Events Conditions
12:21 AM 33.8 °F 26.4 °F 33.8 °F 100% 29.74 in 0.5 mi NNW 9.2 mph - N/A Fog , Rain Light Rain
12:53 AM 33.1 °F 26.9 °F 33.1 °F 100% 29.62 in 0.5 mi WNW 6.9 mph - N/A Fog , Rain Heavy Rain
1:39 AM 33.8 °F 27.0 °F 33.8 °F 100% 29.72 in 1.2 mi NNW 8.1 mph - N/A   Overcast
1:42 AM 33.8 °F 27.7 °F 33.8 °F 100% 29.72 in 2.0 mi NNW 6.9 mph - N/A   Overcast
1:50 AM 33.8 °F 27.7 °F 33.8 °F 100% 29.73 in 9.0 mi NW 6.9 mph - N/A Rain Light Rain
1:53 AM 33.1 °F 27.7 °F 33.1 °F 100% 29.55 in 7.0 mi NNW 5.8 mph - N/A Rain Rain
2:02 AM 33.8 °F 29.6 °F 33.8 °F 100% 29.72 in 1.5 mi NNW 4.6 mph - N/A Rain Rain
2:08 AM 33.8 °F 28.6 °F 33.8 °F 100% 29.72 in 0.8 mi North 5.8 mph - N/A Rain Light Rain
2:25 AM 32.0 °F 25.6 °F 32.0 °F 100% 29.71 in 0.8 mi NNW 6.9 mph - N/A   Overcast
2:53 AM 32.0 °F 25.6 °F 32.0 °F 100% 29.53 in 0.5 mi NW 6.9 mph - N/A Fog , Rain Light Freezing Rain
3:01 AM 32.0 °F 25.6 °F 32.0 °F 100% 29.72 in 0.5 mi NW 6.9 mph - 0.00 in Fog , Rain Light Freezing Rain
3:21 AM 32.0 °F 24.2 °F 30.2 °F 93% 29.71 in 0.5 mi NNW 9.2 mph - 0.00 in Fog Fog
3:31 AM 32.0 °F 24.8 °F 30.2 °F 93% 29.72 in 0.5 mi WNW 8.1 mph - 0.00 in Fog , Rain Light Freezing Rain
3:53 AM 30.9 °F 22.2 °F 30.9 °F 100% 29.54 in 0.5 mi NW 10.4 mph 27.6 mph 0.00 in Fog , Snow Light Snow
4:21 AM 30.2 °F 23.4 °F 30.2 °F 100% 29.73 in 0.8 mi NW 6.9 mph - 0.00 in   Mist
4:24 AM 30.2 °F 23.4 °F 30.2 °F 100% 29.73 in 1.0 mi NW 6.9 mph - 0.00 in Rain Light Freezing Rain
4:30 AM 30.2 °F 21.9 °F 30.2 °F 100% 29.72 in 0.8 mi NNW 9.2 mph - N/A Snow Light Snow
4:34 AM 30.2 °F 21.9 °F 30.2 °F 100% 29.70 in 1.0 mi North 9.2 mph - N/A Snow Light Snow
4:41 AM 30.2 °F 23.4 °F 30.2 °F 100% 29.70 in 1.0 mi Variable 6.9 mph - N/A   Mist
4:46 AM 30.2 °F 25.4 °F 30.2 °F 100% 29.72 in 0.8 mi Variable 4.6 mph - N/A Rain Light Freezing Rain
4:53 AM 30.0 °F 22.4 °F 30.0 °F 100% 29.60 in 0.2 mi WNW 8.1 mph - N/A Fog , Snow Light Snow
4:56 AM 30.2 °F 23.4 °F 30.2 °F 100% 29.72 in 0.5 mi NW 6.9 mph - N/A Fog , Snow Snow
5:21 AM 28.4 °F 19.7 °F 28.4 °F 100% 29.73 in - NW 9.2 mph 19.6 mph N/A Snow Light Snow
5:53 AM 28.0 °F 19.3 °F 28.0 °F 100% 29.61 in 0.5 mi NW 9.2 mph 17.3 mph N/A Fog , Snow Snow
6:22 AM 28.4 °F 19.1 °F 28.4 °F 100% 29.73 in 0.2 mi NNW 10.4 mph 17.3 mph N/A Fog , Snow Snow
6:43 AM 28.4 °F 19.1 °F 26.6 °F 93% 29.73 in 0.5 mi NNW 10.4 mph 17.3 mph N/A Fog , Snow Light Snow
6:53 AM 27.0 °F 18.0 °F 27.0 °F 100% 29.65 in 0.5 mi NNW 9.2 mph - N/A Fog , Snow Light Snow
7:17 AM 26.6 °F 18.2 °F 26.6 °F 100% 29.75 in 0.2 mi NW 8.1 mph - N/A Fog , Snow Light Snow
7:29 AM 26.6 °F 18.2 °F 26.6 °F 100% 29.74 in 0.5 mi NW 8.1 mph - N/A Fog , Snow Light Snow
7:45 AM 26.6 °F 19.1 °F 26.6 °F 100% 29.75 in 0.2 mi NW 6.9 mph - N/A Fog , Snow Snow
7:53 AM 27.0 °F 18.7 °F 27.0 °F 100% 29.67 in 0.2 mi NW 8.1 mph - N/A Fog , Snow Light Snow
8:50 AM 28.4 °F 21.2 °F 28.4 °F 100% 29.76 in 0.5 mi NNW 6.9 mph - N/A Fog , Snow Light Snow
8:53 AM 28.0 °F 20.0 °F 28.0 °F 100% 29.68 in 0.5 mi NNW 8.1 mph - N/A Fog , Snow Light Snow
9:00 AM 28.4 °F 22.2 °F 28.4 °F 100% 29.77 in 0.2 mi Variable 5.8 mph - N/A Fog , Snow Light Snow
9:09 AM 28.4 °F 24.6 °F 26.6 °F 93% 29.78 in 0.5 mi Variable 3.5 mph - N/A Fog , Snow Light Snow
9:40 AM 28.4 °F 23.3 °F 26.6 °F 93% 29.78 in 0.2 mi NNW 4.6 mph - N/A Fog , Snow Snow
9:53 AM 27.0 °F 19.5 °F 27.0 °F 100% 29.70 in 0.2 mi Variable 6.9 mph - N/A Fog , Snow Snow
10:49 AM 28.4 °F 24.6 °F 28.4 °F 100% 29.79 in 0.5 mi Variable 3.5 mph - N/A Fog , Snow Light Snow
10:53 AM 28.0 °F 22.8 °F 28.0 °F 100% 29.72 in 0.5 mi Variable 4.6 mph - N/A Fog , Snow Light Snow
11:01 AM 28.4 °F 23.3 °F 28.4 °F 100% 29.80 in 0.5 mi NNW 4.6 mph - N/A Fog , Snow Light Snow
11:20 AM 28.4 °F 22.2 °F 28.4 °F 100% 29.80 in 0.2 mi NNW 5.8 mph - N/A Fog Light Freezing Fog
11:46 AM 28.4 °F 22.2 °F 28.4 °F 100% 29.80 in 0.2 mi NNW 5.8 mph - N/A Fog Light Freezing Fog
11:53 AM 28.9 °F 23.9 °F 28.9 °F 100% 29.72 in 0.2 mi NNW 4.6 mph - N/A Fog Light Freezing Fog
12:27 PM 30.2 °F 24.3 °F 28.4 °F 93% 29.81 in 0.2 mi Variable 5.8 mph - N/A Fog Light Freezing Fog
12:53 PM 28.9 °F 23.9 °F 28.9 °F 100% 29.74 in 0.2 mi Variable 4.6 mph - N/A Fog , Snow Light Snow
1:33 PM 30.2 °F 25.4 °F 30.2 °F 100% 29.82 in 0.2 mi NNW 4.6 mph - N/A Fog Light Freezing Fog
1:53 PM 30.0 °F 23.2 °F 28.9 °F 96% 29.75 in 0.2 mi NNW 6.9 mph - N/A Fog , Snow Light Snow
2:34 PM 28.4 °F - 28.4 °F 100% 29.86 in 0.5 mi Calm Calm - N/A Fog Light Freezing Fog
2:42 PM 28.4 °F 24.6 °F 28.4 °F 100% 29.85 in 0.2 mi Variable 3.5 mph - N/A Fog Light Freezing Fog
2:53 PM 28.9 °F 23.9 °F 28.0 °F 96% 29.79 in 0.2 mi Variable 4.6 mph - N/A Fog , Snow Light Snow
3:01 PM 28.4 °F 22.2 °F 28.4 °F 100% 29.86 in - NW 5.8 mph - N/A Snow Light Snow
3:27 PM 28.4 °F 21.2 °F 28.4 °F 100% 29.87 in 0.2 mi NW 6.9 mph - N/A Fog , Snow Snow
3:53 PM 28.0 °F 22.8 °F 28.0 °F 100% 29.81 in 0.2 mi Variable 4.6 mph - N/A Fog , Snow Light Snow
4:26 PM 28.4 °F 22.2 °F 28.4 °F 100% 29.88 in 0.2 mi NW 5.8 mph - N/A Fog , Snow Light Snow
4:41 PM 28.4 °F 22.2 °F 28.4 °F 100% 29.87 in 0.2 mi NNW 5.8 mph - N/A Fog , Snow Light Snow
4:53 PM 28.9 °F 25.2 °F 28.9 °F 100% 29.82 in 0.2 mi Variable 3.5 mph - N/A Fog Light Freezing Fog
5:40 PM 28.4 °F - 28.4 °F 100% 29.92 in 0.2 mi Calm Calm - N/A Fog , Snow Light Snow
5:53 PM 28.9 °F - 28.9 °F 100% 29.99 in 0.2 mi Calm Calm - N/A Fog , Snow Light Snow
6:53 PM 28.9 °F - 28.9 °F 100% 30.01 in 0.2 mi Calm Calm - N/A Fog Light Freezing Fog
7:06 PM 28.4 °F - 28.4 °F 100% 29.92 in 0.5 mi Calm Calm - N/A Fog Light Freezing Fog
7:08 PM 28.4 °F - 28.4 °F 100% 29.92 in 1.8 mi Calm Calm - N/A   Overcast
7:13 PM 28.4 °F - 28.4 °F 100% 29.92 in 3.0 mi Calm Calm - N/A   Overcast
7:33 PM 28.4 °F - 28.4 °F 100% 29.93 in 1.5 mi Calm Calm - N/A   Overcast
7:37 PM 28.4 °F 24.6 °F 28.4 °F 100% 29.93 in 0.8 mi Variable 3.5 mph - N/A   Overcast
7:53 PM 28.9 °F 23.9 °F 28.9 °F 100% 30.02 in - Variable 4.6 mph - N/A   Overcast
8:53 PM 28.9 °F 23.9 °F 28.0 °F 96% 30.02 in - South 4.6 mph - N/A   Overcast
9:53 PM 28.9 °F 22.8 °F 28.9 °F 100% 30.04 in - South 5.8 mph - N/A   Overcast
10:29 PM 28.4 °F - 28.4 °F 100% 29.94 in 1.0 mi Calm Calm - N/A   Mist
10:40 PM 28.4 °F - 28.4 °F 100% 29.94 in 1.5 mi Calm Calm - N/A   Overcast
10:44 PM 28.4 °F - 26.6 °F 93% 29.95 in 3.0 mi Calm Calm - N/A   Overcast
10:53 PM 28.9 °F - 28.0 °F 96% 30.03 in 6.0 mi Calm Calm - N/A   Overcast
11:11 PM 28.4 °F 23.3 °F 28.4 °F 100% 29.95 in 1.5 mi SSE 4.6 mph - N/A   Overcast
11:15 PM 28.4 °F 23.3 °F 28.4 °F 100% 29.95 in 0.8 mi South 4.6 mph - N/A   Overcast
11:31 PM 28.4 °F 23.3 °F 28.4 °F 100% 29.94 in 1.2 mi South 4.6 mph - N/A   Overcast
11:35 PM 28.4 °F 23.3 °F 28.4 °F 100% 29.94 in 1.5 mi South 4.6 mph - N/A   Overcast
11:42 PM 28.4 °F 22.2 °F 28.4 °F 100% 29.94 in 0.8 mi South 5.8 mph - N/A   Overcast
11:53 PM 28.0 °F 22.8 °F 28.0 °F 100% 30.02 in 1.5 mi South 4.6 mph - N/A   Overcast
11:56 PM 28.4 °F 23.3 °F 28.4 °F 100% 29.94 in 3.0 mi South 4.6 mph - N/A   Overcast